sat.trackr.live / text

‹ back to catalog

LEMUR-2-SEJONG-3

NORAD 68482 · 2026-067BU

PAYLOAD ACTIVE UNKNOWN

§ Identity

Operator
Country
GER
Launch date
2026-03-30
Launch site
AFWTR
Launch vehicle
Mass (kg)
RCS (m²)

External: N2YO · Heavens-Above · Gunter

§ Orbital elements

Epoch: 2026-09-20T03:43:43.485888Z

Period
96.42 min
Inclination
97.7671°
Eccentricity
0.0002124
Mean motion
14.93425611 rev/d
Perigee alt
585.8 km
Apogee alt
588.7 km
Semi-major
6,965.4 km
B*
2.1206e-4
RAAN
220.2557°
Arg perigee
322.6875°
Mean anomaly
37.4196°
Rev number
2,590

§ Raw data

LEMUR-2-SEJONG-31 68482U 26067BU  26263.15536442  .00002171  00000+0  21206-3 0  99922 68482  97.7671 220.2557 0002124 322.6875  37.4196 14.93425611 25904

JSON: /api/v1/satellites/68482 · /tle

For live sub-satellite position, see the globe view (requires WebGL).

§ Visibility from observer

Set your observer location to see the next 7 days of passes ≥ 10°. The values pass through the URL so the page stays shareable.

No JS? Fill the form by hand. The geolocation button needs JavaScript.